|
Cosmos 2227 Rocket - Orbit
|
Sawyer Lake;
13:10:12
| Home | Info | Passes |
|
View from above orbital plane
|
View from above satellite
|
Ground track
|
The orbit data is extracted from the following two-line orbital elements,
1 22285U 92093B 13142.87290191 -.00000102 00000-0 -28378-4 0 404
2 22285 071.0232 089.9271 0006180 248.6528 111.3935 14.14856657 52290
| Epoch (UTC): | 22 May 2013 20:56:58 |
| Eccentricity: | 0.0006180 |
| inclination: | 71.0232° |
| perigee height: | 838 km |
| apogee height: | 847 km |
| right ascension of ascending node: | 89.9271° |
| argument of perigee: | 248.6528° |
| revolutions per day: | 14.14856657 |
| mean anomaly at epoch: | 111.3935° |
| orbit number at epoch: | 5229 |
The dashed part of the orbit path shows where the satellite is in the earth's shadow,
|
|